Location: Katherine
(14.4670°S, 132.2670°E)
Time: 08:04:26
(UTC+09:30)

ISS - Pass Details

Date: 27 May 2017
Orbit: 402 x 408 km, 51.6° (Epoch: 27 May)

Event Time Altitude Azimuth Distance (km) Brightness Sun altitude
Rises 05:46:56 0° 358° (N) 2,294 0.2 -16.9°
Reaches altitude 10° 05:49:55 10° 29° (NNE) 1,443 -0.4 -16.2°
Maximum altitude 05:51:24 13° 56° (NE) 1,301 -0.1 -15.8°
Drops below altitude 10° 05:52:54 10° 84° (E) 1,450 0.3 -15.5°
Sets 05:55:54 0° 114° (ESE) 2,316 0.8 -14.8°
